Temp
68 67 66 66 65 65 64 63 63 62 61 60 60 59 60 59 59 59 58 57 57 56 56 55 55 55 55 54 53 54 53 52 52 51 51 51 50 50 50 49 48 49
67 67 66 65 64 64 64 64 63 63 61 60 60 60 60 59 58 59 58 58 57 56 55 55 55 55 54 53 52 52 51 52 52 53 51 51 50 50 49 49 48 47
67 66 65 64 64 63 63 63 62 62 61 61 61 61 60 59 58 58 58 57 57 55 55 54 54 54 54 53 52 53 52 51 51 50 51 50 49 50 48 48 48 49
66 66 65 64 64 63 63 62 61 61 61 60 61 62 62 60 58 57 57 59 56 55 54 54 54 54 53 52 52 50 51 51 50 50 50 49 50 50 49 50 49 49
66 65 65 65 64 64 63 63 62 61 61 61 62 62 61 60 58 58 56 56 55 54 54 54 53 53 52 52 51 50 50 49 49 49 50 49 49 50 49 50 49 49
66 66 65 65 64 63 63 63 63 62 62 62 62 61 59 59 58 57 56 55 54 54 54 53 53 52 52 51 51 51 50 50 49 49 50 50 49 49 51 50 49 48
66 66 65 65 65 64 63 63 63 63 62 63 62 60 59 58 57 57 57 56 55 55 54 53 52 51 52 51 51 50 50 50 49 50 50 48 50 49 50 50 49 48
66 67 66 66 65 64 63 63 62 62 62 62 61 59 59 59 58 57 57 56 55 54 54 53 53 52 51 51 51 50 49 51 50 50 49 48 50 50 49 50 49 49
67 66 66 65 64 64 63 63 62 62 62 61 60 59 59 59 58 57 56 56 55 54 54 53 53 52 51 51 51 51 50 50 50 49 49 49 50 50 49 48 49 48
66 66 65 65 64 64 63 62 62 61 61 60 60 59 58 58 58 57 56 55 55 54 53 53 52 52 51 51 51 51 50 50 49 49 50 50 51 50 49 49 48 47
66 66 65 65 64 64 63 63 62 61 61 60 59 59 58 57 57 57 56 55 55 54 53 53 53 52 51 51 50 50 51 50 50 50 50 52 51 50 52 49 50 49
66 65 65 65 64 64 63 63 63 62 61 60 60 59 58 58 57 57 57 55 55 54 54 53 53 52 52 51 50 51 51 51 51 51 51 52 51 51 51 50 48 47
66 65 65 65 64 64 64 64 63 63 62 60 60 59 58 57 57 56 56 56 55 54 54 53 52 52 52 51 50 51 51 51 50 50 51 51 50 50 49 48 47 46
66 66 65 65 65 64 64 63 63 63 62 61 60 58 58 57 57 57 56 56 55 54 54 53 52 51 51 50 50 51 52 50 50 51 51 50 49 48 48 47 46 46
66 66 66 65 64 64 63 63 63 63 62 61 60 59 58 58 58 57 55 55 54 54 53 53 52 52 51 50 50 50 49 49 50 51 51 49 48 47 46 46 46 46
66 65 65 64 63 63 63 63 63 62 62 61 60 60 59 58 57 56 56 55 53 53 53 52 51 51 54 53 52 51 50 51 51 50 50 49 48 46 45 46 46 45
65 64 63 62 63 63 62 62 62 62 62 61 60 60 59 58 56 55 54 54 53 52 51 51 51 53 50 46 47 50 52 50 50 49 49 49 48 47 45 46 44 45
64 63 62 62 62 62 62 62 62 62 61 60 59 59 59 58 56 55 53 53 52 52 51 51 50 51 45 46 46 47 51 51 49 49 49 48 48 47 47 46 45 45
64 63 62 62 62 62 62 62 62 61 61 60 59 59 59 57 56 54 52 52 52 51 50 50 50 46 45 46 46 46 47 50 50 49 49 48 48 47 47 46 45 45
63 63 62 62 62 62 62 61 61 60 60 60 59 59 58 57 54 53 52 51 51 51 50 50 50 47 45 45 45 45 44 48 50 49 48 48 48 48 47 46 45 45
62 63 62 61 61 60 59 59 58 60 60 59 59 58 57 55 54 52 51 51 51 50 50 50 51 46 44 44 44 44 44 47 49 50 49 47 48 48 47 47 46 46
61 61 61 60 58 57 57 58 59 60 59 58 58 57 56 55 53 53 51 51 51 50 50 48 48 43 43 44 44 44 45 50 48 48 48 47 47 47 47 47 47 47
62 61 60 59 58 58 58 58 58 59 58 58 57 56 54 54 53 53 53 52 51 51 50 49 47 43 43 44 44 43 47 49 49 49 48 47 48 47 47 47 47 47
62 61 60 59 57 58 58 58 59 59 57 57 57 55 54 54 54 53 52 52 51 50 50 48 47 45 43 43 43 44 48 49 49 48 47 48 48 48 48 48 49 54
62 61 60 59 57 57 58 58 58 57 57 57 57 56 55 54 53 52 51 52 52 51 52 50 47 46 42 43 43 44 48 48 48 47 47 47 47 48 47 48 48 53
62 60 59 57 57 57 58 58 57 56 56 56 55 54 52 52 52 52 51 51 51 50 51 50 47 45 44 42 44 44 46 49 49 46 47 46 47 49 48 45 44 45
MSLP
1014.28 1014.68 1015.08 1015.44 1015.76 1016.00 1016.36 1016.80 1017.08 1017.36 1017.64 1017.84 1018.04 1018.28 1018.44 1018.72 1018.88 1019.00 1019.20 1019.36 1019.48 1019.64 1019.84 1019.92 1020.04 1020.16 1020.36 1020.56 1020.72 1020.84 1021.04 1021.20 1021.36 1021.52 1021.64 1021.80 1022.08 1022.12 1022.24 1022.36 1022.40 1022.44
1014.12 1014.48 1014.88 1015.24 1015.64 1015.92 1016.24 1016.44 1016.80 1017.08 1017.44 1017.72 1017.92 1018.16 1018.44 1018.68 1018.92 1018.96 1019.20 1019.40 1019.52 1019.72 1019.88 1020.04 1020.12 1020.24 1020.48 1020.72 1020.88 1021.00 1021.24 1021.32 1021.48 1021.68 1021.76 1021.92 1022.16 1022.24 1022.36 1022.40 1022.48 1022.64
1013.96 1014.40 1014.76 1015.12 1015.48 1015.80 1016.12 1016.40 1016.68 1016.96 1017.28 1017.60 1017.84 1018.04 1018.36 1018.64 1018.88 1019.04 1019.20 1019.36 1019.56 1019.80 1019.96 1020.08 1020.24 1020.40 1020.56 1020.80 1020.96 1021.12 1021.28 1021.44 1021.60 1021.84 1021.88 1022.08 1022.28 1022.32 1022.48 1022.52 1022.56 1022.52
1013.76 1014.08 1014.52 1014.92 1015.24 1015.64 1015.96 1016.36 1016.68 1016.92 1017.20 1017.56 1017.76 1017.92 1018.20 1018.56 1018.80 1019.04 1019.24 1019.32 1019.56 1019.80 1020.00 1020.12 1020.24 1020.48 1020.68 1020.92 1021.08 1021.32 1021.44 1021.60 1021.80 1021.96 1022.08 1022.36 1022.44 1022.44 1022.52 1022.52 1022.60 1022.68
1013.60 1014.04 1014.40 1014.76 1015.12 1015.44 1015.76 1016.16 1016.52 1016.76 1017.00 1017.28 1017.56 1017.84 1018.16 1018.48 1018.80 1019.00 1019.20 1019.40 1019.52 1019.80 1020.00 1020.16 1020.36 1020.56 1020.80 1021.00 1021.20 1021.40 1021.60 1021.76 1022.00 1022.08 1022.20 1022.44 1022.56 1022.48 1022.60 1022.60 1022.64 1022.68
1013.40 1013.72 1014.16 1014.56 1014.92 1015.28 1015.68 1015.96 1016.24 1016.56 1016.88 1017.24 1017.44 1017.72 1018.04 1018.36 1018.60 1018.84 1019.12 1019.36 1019.56 1019.76 1020.00 1020.20 1020.40 1020.64 1020.80 1021.04 1021.28 1021.48 1021.68 1021.88 1022.08 1022.16 1022.32 1022.44 1022.60 1022.64 1022.68 1022.72 1022.72 1022.76
1013.28 1013.60 1014.00 1014.36 1014.76 1015.08 1015.40 1015.72 1016.04 1016.36 1016.68 1016.96 1017.36 1017.68 1017.96 1018.32 1018.52 1018.72 1019.00 1019.20 1019.48 1019.76 1019.96 1020.20 1020.40 1020.68 1020.88 1021.08 1021.32 1021.56 1021.76 1021.92 1022.12 1022.20 1022.28 1022.52 1022.60 1022.68 1022.76 1022.76 1022.76 1022.76
1012.96 1013.36 1013.76 1014.16 1014.60 1014.96 1015.24 1015.56 1015.92 1016.20 1016.52 1016.92 1017.28 1017.64 1017.84 1018.12 1018.40 1018.68 1018.92 1019.20 1019.44 1019.68 1019.92 1020.16 1020.36 1020.60 1020.88 1021.08 1021.32 1021.56 1021.80 1022.00 1022.12 1022.16 1022.32 1022.52 1022.56 1022.64 1022.76 1022.80 1022.84 1022.84
1012.64 1013.16 1013.52 1013.92 1014.36 1014.72 1015.08 1015.44 1015.80 1016.08 1016.36 1016.72 1017.12 1017.52 1017.76 1017.92 1018.28 1018.60 1018.92 1019.16 1019.40 1019.60 1019.88 1020.16 1020.36 1020.60 1020.84 1021.04 1021.28 1021.48 1021.72 1021.96 1022.04 1022.12 1022.24 1022.36 1022.48 1022.64 1022.68 1022.72 1022.72 1022.80
1012.40 1012.84 1013.32 1013.72 1014.08 1014.40 1014.88 1015.28 1015.60 1015.96 1016.24 1016.56 1016.96 1017.32 1017.64 1017.96 1018.16 1018.52 1018.84 1019.08 1019.32 1019.60 1019.84 1020.08 1020.36 1020.56 1020.80 1021.00 1021.20 1021.48 1021.64 1021.80 1022.00 1022.12 1022.20 1022.28 1022.36 1022.52 1022.60 1022.60 1022.64 1022.76
1012.16 1012.60 1013.08 1013.44 1013.76 1014.16 1014.64 1015.04 1015.40 1015.76 1016.12 1016.40 1016.80 1017.16 1017.44 1017.84 1018.24 1018.44 1018.72 1019.00 1019.24 1019.52 1019.80 1020.00 1020.24 1020.48 1020.72 1021.00 1021.28 1021.44 1021.56 1021.68 1021.88 1021.96 1022.08 1022.12 1022.28 1022.40 1022.44 1022.48 1022.56 1022.76
1011.84 1012.36 1012.72 1013.08 1013.44 1013.88 1014.40 1014.76 1015.12 1015.52 1015.92 1016.28 1016.48 1016.92 1017.36 1017.68 1017.96 1018.36 1018.56 1018.88 1019.16 1019.44 1019.68 1019.92 1020.20 1020.44 1020.64 1020.92 1021.20 1021.36 1021.48 1021.60 1021.68 1021.84 1021.96 1022.08 1022.20 1022.28 1022.28 1022.36 1022.52 1022.88
1011.52 1011.96 1012.36 1012.76 1013.08 1013.56 1014.08 1014.52 1014.84 1015.20 1015.64 1016.04 1016.36 1016.68 1017.12 1017.56 1017.88 1018.16 1018.48 1018.72 1019.04 1019.32 1019.60 1019.84 1020.16 1020.40 1020.60 1020.84 1021.08 1021.24 1021.36 1021.48 1021.68 1021.84 1021.96 1022.08 1022.20 1022.20 1022.32 1022.52 1022.76 1023.00
1011.20 1011.60 1012.00 1012.40 1012.80 1013.24 1013.76 1014.24 1014.64 1015.04 1015.40 1015.84 1016.24 1016.64 1016.96 1017.24 1017.60 1017.92 1018.32 1018.60 1018.92 1019.24 1019.48 1019.80 1020.08 1020.36 1020.52 1020.76 1020.96 1021.08 1021.20 1021.36 1021.56 1021.72 1021.84 1022.00 1022.20 1022.32 1022.44 1022.60 1022.80 1022.96
1010.92 1011.36 1011.64 1012.12 1012.60 1013.08 1013.52 1014.04 1014.48 1014.88 1015.24 1015.68 1016.08 1016.48 1016.76 1017.04 1017.32 1017.68 1018.16 1018.56 1018.88 1019.12 1019.44 1019.76 1020.00 1020.20 1020.44 1020.60 1020.80 1020.96 1021.12 1021.28 1021.48 1021.60 1021.76 1021.88 1022.20 1022.48 1022.60 1022.68 1022.80 1022.92
1010.60 1011.08 1011.48 1011.84 1012.40 1012.84 1013.28 1013.80 1014.32 1014.76 1015.08 1015.52 1015.96 1016.24 1016.56 1016.92 1017.28 1017.64 1017.96 1018.32 1018.76 1019.08 1019.36 1019.68 1019.92 1020.12 1020.28 1020.40 1020.60 1020.80 1021.04 1021.20 1021.40 1021.60 1021.68 1021.76 1022.12 1022.52 1022.68 1022.72 1022.76 1022.88
1010.36 1010.84 1011.24 1011.72 1012.12 1012.64 1013.16 1013.68 1014.16 1014.52 1014.92 1015.36 1015.76 1016.12 1016.44 1016.80 1017.16 1017.56 1017.84 1018.20 1018.56 1018.92 1019.28 1019.56 1019.80 1019.96 1020.08 1020.28 1020.48 1020.68 1020.88 1021.12 1021.36 1021.56 1021.64 1021.76 1022.04 1022.32 1022.56 1022.72 1022.80 1022.80
1010.00 1010.56 1011.12 1011.52 1011.96 1012.40 1012.92 1013.36 1013.84 1014.24 1014.64 1015.12 1015.56 1016.00 1016.32 1016.68 1017.08 1017.32 1017.72 1018.12 1018.52 1018.80 1019.12 1019.36 1019.64 1019.72 1019.92 1020.16 1020.36 1020.52 1020.68 1021.00 1021.28 1021.44 1021.64 1021.72 1022.00 1022.24 1022.48 1022.60 1022.72 1022.84
1009.64 1010.12 1010.72 1011.28 1011.68 1012.16 1012.60 1013.04 1013.52 1013.96 1014.40 1014.88 1015.36 1015.64 1016.12 1016.56 1016.84 1017.24 1017.68 1018.04 1018.32 1018.68 1019.04 1019.28 1019.48 1019.68 1019.76 1019.96 1020.12 1020.32 1020.64 1020.92 1021.20 1021.32 1021.52 1021.72 1021.92 1022.16 1022.36 1022.52 1022.68 1022.80
1009.36 1009.80 1010.28 1010.68 1011.16 1011.72 1012.36 1012.88 1013.24 1013.60 1014.04 1014.52 1015.08 1015.52 1015.92 1016.36 1016.76 1017.00 1017.48 1017.84 1018.16 1018.52 1018.92 1019.20 1019.36 1019.60 1019.60 1019.76 1020.00 1020.36 1020.68 1020.76 1020.96 1021.16 1021.40 1021.60 1021.80 1022.04 1022.24 1022.40 1022.56 1022.64
1009.04 1009.40 1009.88 1010.32 1010.80 1011.56 1012.20 1012.52 1012.96 1013.44 1013.92 1014.40 1014.80 1015.16 1015.64 1016.16 1016.56 1016.84 1017.28 1017.64 1018.04 1018.40 1018.72 1019.04 1019.20 1019.32 1019.44 1019.72 1020.04 1020.32 1020.52 1020.60 1020.80 1021.00 1021.28 1021.52 1021.72 1021.92 1022.08 1022.20 1022.40 1022.52
1008.84 1009.12 1009.44 1010.00 1010.72 1011.24 1011.68 1012.16 1012.52 1012.84 1013.56 1014.24 1014.72 1015.16 1015.60 1016.04 1016.44 1016.56 1017.04 1017.48 1017.88 1018.20 1018.52 1018.88 1019.12 1019.28 1019.36 1019.64 1019.84 1020.08 1020.32 1020.56 1020.84 1021.04 1021.20 1021.44 1021.60 1021.76 1022.04 1022.12 1022.28 1022.36
1008.44 1008.88 1009.36 1009.84 1010.20 1010.88 1011.44 1011.92 1012.36 1012.92 1013.48 1013.96 1014.56 1015.08 1015.52 1015.88 1016.04 1016.24 1016.60 1017.08 1017.60 1017.92 1018.16 1018.60 1019.04 1019.32 1019.32 1019.52 1019.76 1019.96 1020.16 1020.44 1020.60 1020.84 1021.16 1021.32 1021.44 1021.64 1021.84 1022.00 1022.16 1022.24
1008.12 1008.48 1009.00 1009.52 1010.12 1010.48 1010.96 1011.64 1012.00 1012.52 1013.16 1013.72 1014.16 1014.80 1015.24 1015.48 1015.80 1016.16 1016.52 1016.84 1017.24 1017.68 1017.88 1018.36 1018.80 1019.12 1019.20 1019.36 1019.64 1019.84 1020.00 1020.32 1020.44 1020.60 1020.96 1021.20 1021.56 1021.40 1021.52 1021.72 1021.84 1021.88
1007.76 1008.24 1008.76 1009.32 1010.00 1010.56 1010.84 1011.00 1011.52 1012.24 1012.96 1013.56 1013.88 1014.28 1014.72 1015.32 1015.76 1016.08 1016.52 1016.84 1017.04 1017.36 1017.76 1018.04 1018.56 1019.04 1019.44 1019.36 1019.48 1019.64 1019.88 1020.28 1020.44 1020.60 1020.92 1021.20 1021.40 1021.40 1021.52 1021.60 1021.68 1021.68
1007.60 1008.00 1008.64 1009.44 1010.04 1010.40 1010.88 1011.00 1011.36 1012.16 1012.80 1013.32 1013.96 1014.40 1014.92 1015.44 1015.68 1015.92 1016.28 1016.72 1017.04 1017.40 1017.68 1017.92 1018.40 1018.92 1019.24 1019.28 1019.36 1019.52 1019.76 1020.08 1020.32 1020.48 1020.72 1021.12 1021.28 1021.16 1021.32 1021.48 1021.56 1021.72
Wind_Speed
11 10 11 10 9 9 10 10 8 8 7 6 7 7 8 6 6 7 6 6 6 6 5 5 5 6 5 5 4 5 5 5 5 4 6 7 6 7 7 6 5 6
12 11 9 9 8 8 8 9 9 9 8 7 7 7 6 7 6 7 7 7 6 6 6 6 6 6 6 6 5 6 5 5 6 3 7 7 6 6 7 6 6 4
11 11 11 11 10 10 10 8 8 8 8 7 7 7 7 6 7 6 7 7 7 6 6 6 6 6 6 6 5 6 6 5 6 4 6 6 5 7 5 6 5 5
12 12 11 11 10 11 9 9 7 7 7 8 8 7 8 7 7 7 7 7 7 6 6 6 7 6 6 6 6 5 5 5 4 5 6 4 4 6 6 5 5 5
12 11 11 10 9 10 10 10 10 9 9 8 7 7 8 8 8 8 7 6 7 7 6 7 6 6 6 6 5 6 5 6 4 5 6 6 4 5 4 5 5 5
11 12 11 11 11 11 10 11 10 10 9 9 9 7 8 9 9 9 8 7 6 7 7 6 6 5 6 6 6 6 6 6 5 5 6 6 5 4 4 5 5 5
12 12 13 12 12 12 11 11 10 10 9 9 8 8 9 9 9 9 8 8 8 7 7 7 7 6 6 6 6 6 5 5 5 5 6 5 5 5 4 4 4 5
13 12 12 12 13 12 11 11 10 10 10 9 10 9 10 10 10 8 8 8 8 8 7 7 7 7 6 6 7 7 5 5 6 6 6 5 5 6 4 4 5 6
13 12 13 14 14 12 12 11 10 10 10 11 10 10 9 10 10 9 9 8 8 8 8 7 7 7 6 7 7 7 7 5 6 6 6 6 6 6 5 5 5 5
14 13 14 14 14 12 13 11 11 10 10 11 11 10 10 8 9 10 9 9 9 8 8 8 7 7 7 6 7 7 7 7 6 5 5 6 7 7 6 6 5 5
14 14 14 14 14 12 13 13 12 11 10 11 11 10 10 9 8 8 9 9 9 9 8 8 8 8 7 6 6 6 7 7 6 6 6 7 7 6 6 6 5 6
14 14 15 15 14 13 14 13 13 12 11 10 11 11 10 10 11 9 9 9 9 9 8 8 7 7 7 7 7 7 7 7 7 6 6 7 6 6 6 5 5 5
14 14 14 14 14 13 12 12 13 13 12 11 10 12 11 10 10 10 8 9 9 8 8 8 7 7 7 7 7 7 8 7 6 6 6 6 5 6 5 5 6 6
13 13 14 14 12 13 13 13 12 12 12 11 10 11 11 12 12 11 9 8 9 9 8 7 7 7 7 6 6 8 8 7 7 7 7 6 5 4 5 6 7 6
12 12 12 13 13 13 13 13 13 12 12 11 11 11 10 11 11 10 10 9 8 9 8 7 8 8 7 7 8 7 7 7 7 7 7 7 5 5 5 6 6 6
13 12 12 13 14 14 14 13 12 12 12 11 11 11 11 10 9 9 10 10 10 9 8 7 7 6 8 12 9 7 7 6 6 6 7 7 7 6 5 5 6 5
13 13 13 14 14 13 13 13 13 11 11 11 11 11 11 10 10 10 9 9 10 9 8 7 7 7 12 13 13 12 7 6 7 6 6 7 7 7 7 5 4 4
14 14 13 14 14 14 14 13 13 12 12 11 11 11 10 9 10 10 9 8 8 9 9 8 7 10 15 14 13 13 10 7 6 6 6 6 7 7 7 6 5 5
14 16 16 15 14 14 13 13 13 12 12 12 12 11 10 11 11 10 9 8 9 10 9 8 6 11 15 15 14 13 13 9 6 6 7 6 7 7 7 7 6 6
15 16 16 16 16 15 14 13 13 13 12 11 10 10 11 10 9 11 9 9 10 10 9 8 8 12 16 15 13 13 12 10 6 7 6 7 6 7 7 7 7 7
16 17 17 16 16 15 14 14 13 12 12 11 11 12 12 11 11 11 10 9 9 9 9 8 8 14 14 14 13 13 13 9 6 6 6 6 6 6 7 8 7 7
14 15 16 15 13 14 16 15 14 14 13 10 9 8 7 7 5 8 10 10 10 10 10 9 8 12 13 15 15 13 13 6 6 6 5 5 5 5 5 6 7 7
16 16 15 15 17 18 16 14 13 12 10 10 11 10 10 10 11 10 10 11 11 10 11 10 8 11 14 15 14 14 10 6 6 7 5 4 5 5 6 6 6 7
16 16 16 15 15 17 16 13 13 11 12 11 13 12 12 11 10 9 9 10 12 11 11 11 9 12 15 15 14 14 10 7 6 7 6 6 5 6 6 6 8 13
16 15 15 15 15 13 14 15 13 13 11 10 10 10 10 8 8 9 9 8 10 11 10 12 10 11 12 13 15 15 10 6 7 6 7 6 6 5 4 6 6 9
14 15 14 12 13 11 9 12 13 12 12 11 9 8 9 8 9 9 11 9 8 9 10 9 9 9 11 14 14 14 13 8 6 8 7 7 5 6 5 3 3 4
Wind_Direction
170 169 168 171 170 169 168 170 172 166 160 153 150 154 151 148 144 132 132 127 128 128 133 130 125 120 115 111 111 107 109 114 111 119 118 116 117 120 116 117 106 110
170 167 167 167 165 168 172 170 168 166 162 158 152 146 146 140 146 138 137 133 129 131 134 133 131 129 128 124 124 119 117 118 117 123 118 115 124 116 118 118 114 116
166 167 168 169 170 169 168 166 161 161 158 157 149 147 144 142 142 142 140 139 135 135 136 137 132 132 131 132 133 128 130 125 122 125 115 124 128 118 123 121 117 120
169 169 168 169 166 166 164 158 156 152 148 151 162 154 144 148 142 142 145 143 138 137 138 137 139 136 134 136 130 126 130 124 129 126 115 113 121 123 131 125 122 113
167 165 167 167 166 163 162 163 161 159 160 160 154 144 144 147 147 145 146 147 141 139 142 140 138 138 136 136 135 130 131 129 132 126 124 126 137 129 139 127 128 125
166 166 166 167 166 164 167 167 166 161 157 159 161 146 148 151 150 151 153 150 148 144 145 143 142 144 142 138 135 137 139 138 147 132 129 136 139 122 124 124 125 124
167 167 168 166 166 168 167 168 165 162 162 159 147 155 152 154 154 156 156 153 151 151 150 151 148 149 148 140 138 140 144 143 144 137 134 138 131 127 125 119 121 117
167 169 166 166 166 168 167 165 163 163 159 153 158 158 158 156 157 159 157 155 153 153 153 154 153 151 153 144 145 146 148 146 148 144 139 140 138 136 133 130 128 117
165 168 167 167 167 167 166 163 163 161 159 158 157 159 162 158 159 159 160 157 155 155 155 157 156 156 158 152 153 154 153 156 155 149 148 146 142 145 143 139 120 115
168 167 167 169 169 167 163 163 162 161 160 158 158 158 158 161 159 159 158 159 157 157 158 158 159 160 161 161 158 156 156 158 154 149 148 149 147 148 148 139 134 116
169 168 170 171 168 164 162 162 162 160 162 160 158 160 158 156 160 159 158 161 163 163 162 163 165 164 162 160 155 159 159 157 155 153 154 152 149 149 149 144 143 131
169 171 172 171 167 162 162 164 163 162 163 164 161 158 158 162 160 166 165 166 164 164 163 166 164 163 165 161 158 163 161 160 160 158 154 148 149 151 149 147 129 125
172 173 171 170 166 162 162 166 165 164 163 164 164 159 161 163 166 165 170 164 165 162 166 165 162 163 165 162 160 162 162 161 158 154 152 147 155 152 140 122 122 125
174 170 169 168 164 161 163 166 165 164 164 161 159 163 165 166 169 170 167 165 163 166 168 162 159 165 166 159 158 162 163 159 156 156 153 154 152 140 131 128 129 130
168 169 168 164 162 162 163 166 168 167 162 161 163 165 167 170 170 163 159 163 163 165 165 162 163 170 167 162 163 165 157 155 158 157 156 148 140 130 130 130 129 135
167 167 168 162 163 165 166 166 167 168 163 164 167 167 168 167 163 163 163 163 164 167 164 163 168 168 172 167 164 160 157 154 152 157 154 145 136 130 133 138 142 143
167 168 164 165 164 164 164 167 169 167 164 164 165 167 168 166 162 162 166 165 164 164 165 166 166 172 168 162 163 157 149 150 157 160 151 145 140 142 146 150 151 152
168 162 165 164 163 166 166 170 168 167 164 163 164 168 169 164 167 168 162 160 158 162 165 166 169 169 162 161 159 155 151 157 159 154 155 152 148 148 152 153 157 158
168 165 165 167 168 165 169 169 168 167 165 164 170 171 165 170 173 159 159 159 159 162 165 163 162 166 161 162 161 160 160 155 158 151 156 162 157 155 157 160 160 160
169 168 169 169 169 168 166 169 170 170 169 167 165 166 170 173 167 160 156 160 164 160 158 163 160 171 162 163 164 162 160 159 164 158 161 167 166 161 164 166 169 165
173 171 171 172 168 163 166 170 167 165 166 167 169 171 171 171 170 162 163 160 158 156 156 163 171 172 165 158 160 168 173 162 161 163 161 169 176 169 170 174 177 174
174 175 173 166 161 164 167 169 170 167 166 163 163 165 161 152 155 150 153 158 157 157 156 163 174 172 161 165 171 172 167 159 159 166 174 176 181 189 176 185 179 175
176 176 175 170 167 167 172 169 164 162 160 159 160 163 163 170 170 166 161 157 159 162 161 164 167 183 172 170 170 166 157 155 163 161 171 176 197 195 188 186 184 181
180 179 176 173 166 171 165 163 164 161 161 164 164 167 174 176 167 157 159 161 160 165 166 160 171 182 179 172 167 165 157 159 160 150 153 162 207 210 188 187 189 183
180 181 179 172 163 162 165 166 162 161 160 165 171 171 165 152 155 155 156 161 167 164 163 161 168 176 178 172 170 169 162 152 145 142 147 196 203 195 194 176 184 173
183 179 173 165 161 154 160 163 158 154 162 164 158 157 152 159 161 160 159 163 159 162 172 165 160 168 182 183 177 171 165 158 156 147 174 192 191 175 185 209 172 156